Location: Unspecified
(0.0000°N, 0.0000°E)
Time: 03:15:53
(UTC+00:00)

LightSail 2 - Pass Details

Date: 18 November 2019
Orbit: 701 x 726 km, 24.0° (Epoch: 11 November)

Event Time Altitude Azimuth Distance (km) Brightness Sun altitude
Rises 19:36:44 0° 237° (WSW) 3,078 9.7 -26.2°
Reaches altitude 10° 19:39:13 10° 233° (SW) 2,157 8.6 -26.8°
Enters shadow 19:43:33 51° 185° (S) 869 5.6 -27.8°
